www.pogodaiklimat.ru

Погода и климат >> Архив погоды >> Россия >> Ненецкий АО >> Мыс Белый Нос


ПОГОДА на Мысе Белый Нос

  • Прогноз погоды на Мысе Белый Нос
  • Монитор погоды на Мысе Белый Нос

АРХИВ ПОГОДЫ на Мысе Белый Нос

Время (UTC), дата Ветер
(напр.,м/с)
 
Видим.   Явления Облачность Т
(С)
Тd
(С)
f
(%)
Тe
(С)
Тes
(С)
Комфортность P
(гПа)
Po
(гПа)
Тmin
(С)
Tmax
(С)
R
(мм)
R24
(мм)
S
(см)
15 16.05 ЮЗ 7
{13}
20 км 10/10 300 м
[Sc]
+0.4 -0.2 96 -7 -7 1013.0 1012.2 +0.9
18 16.05 ЮЗ 6 20 км 10/10 300 м
[Sc]
+0.2 -0.1 98 -7 -7 1012.1 1011.4
21 16.05 Ю 5 н/о н/о 0.0 0.0 100 -6 -6 1011.4 1010.6
00 17.05 Ю 4 4000 м дымка 10/10 300 м
[St]
0.0 0.0 100 -6 -6 1010.5 1009.7
03 17.05 Ю 5 4000 м слаб. снег 10/10 300 м
[St]
+0.1 +0.1 100 -6 -6 1010.2 1009.4 0.0 0.0 31
06 17.05 Ю 4 20 км {снег} 9/9 300 м
[Sc]
+0.6 +0.4 99 -5 -4 1010.0 1009.3
09 17.05 ЮВ 2 н/о н/о +1.7 +0.3 90 -2 -2 1010.1 1009.3
12 17.05 СВ 4 20 км 4/1 300 м
[Cu hum Ci]
+1.4 +0.1 91 -4 -1 1010.0 1009.3
15 17.05 СВ 4 500 м туман ясно -0.9 -1.0 99 -7 -6 1009.9 1009.2 +2.7 0.3
18 17.05 С 6 2000 м дымка {туман} 10/10 300 м
[St]
-1.4 -1.4 100 -9 -9 1009.1 1008.4
21 17.05 С 5 н/о н/о -0.9 -0.9 100 -8 -8 1007.9 1007.2
00 18.05 СВ 6 20 км 10/3 300 м
[St Cs]
+0.2 +0.2 100 -7 -7 1007.4 1006.6
03 18.05 В 8-10
{10}
20 км 10/6 300 м
[Sc Cs]
+0.2 0.0 99 -8 -7 1008.3 1007.5 -1.5 29
06 18.05 СВ 10-11
{13}
20 км 9/9 300 м
[St]
-0.3 -1.0 95 -9 -9 1009.3 1008.5
09 18.05 СВ 12-16
{16}
н/о н/о +0.1 -1.5 89 -9 -9 1010.1 1009.3
12 18.05 СВ 13-16
{16}
20 км 9/6 300 м
[Sc Ci]
+0.2 -1.3 90 -9 -9 1011.2 1010.4
15 18.05 СВ 12-15
{17}
20 км 9/0
[Ci]
-0.3 -1.5 92 -9 -9 1012.4 1011.7 +0.4
18 18.05 СВ 9-12
{16}
20 км 9/4 300 м
[Sc Ci]
-1.4 -2.1 95 -10 -10 1013.6 1012.9
21 18.05 СВ 11-14
{15}
н/о н/о -0.9 -1.4 96 -10 -10 1014.7 1013.9
00 19.05 СВ 7-10
{14}
20 км 10/10 300 м
[Sc]
-1.6 -2.1 96 -9 -9 1016.0 1015.2
03 19.05 СВ 9-11
{13}
20 км 4/4 300 м
[Sc]
-1.7 -2.5 94 -10 -10 1016.4 1015.7 -2.0 28
06 19.05 СВ 10-11
{12}
20 км ясно -0.8 -2.1 91 -9 -9 1017.1 1016.3
09 19.05 СВ 10-12
{12}
н/о н/о -0.8 -2.0 92 -9 -9 1017.6 1016.8
12 19.05 СВ 10-12
{12}
20 км ясно -0.9 -2.5 89 -9 -9 1018.0 1017.2
15 19.05 СВ 8-10
{12}
20 км 9/9 300 м
[Sc diur, vesp]
-2.2 -3.5 91 -10 -10 1018.0 1017.2 -0.6
18 19.05 СВ 9-11
{12}
20 км 10/10 300 м
[Sc]
-2.7 -4.1 90 -11 -11 1017.7 1016.9
21 19.05 С 9-12
{12}
н/о н/о -3.0 -4.0 93 -12 -12 1017.0 1016.3
00 20.05 СВ 10-12
{13}
20 км 10/0
[Ac und]
-3.8 -4.6 94 -13 -13 1017.1 1016.3
03 20.05 С 9-11
{13}
20 км 9/9 300 м
[Sc]
-3.3 -4.3 93 -12 -12 1017.5 1016.7 -3.9 28
06 20.05 С 9-12
{13}
20 км 9/8 300 м
[Sc Ci fib]
-2.7 -3.9 91 -11 -11 1017.8 1017.0
09 20.05 С 9-12
{12}
н/о н/о -2.8 -4.0 91 -12 -12 1018.5 1017.7
12 20.05 С 8-10
{12}
20 км 8/6 300 м
[Sc Ci fib]
-1.8 -3.4 89 -10 -9 1019.3 1018.5
15 20.05 С 7
{11}
20 км 4/1 300 м
[Sc Ci fib]
-2.0 -3.3 91 -10 -9 1019.1 1018.4 -1.7
18 20.05 С 4 20 км 9/1 300 м
[Sc Ci fib]
-3.4 -4.3 93 -10 -10 1019.0 1018.3
21 20.05 С 4 н/о н/о -4.7 -5.1 97 -11 -11 1018.6 1017.8
00 21.05 С 6 20 км 9/9 300 м
[Sc]
-2.7 -3.9 91 -10 -10 1018.4 1017.6
03 21.05 С 5 20 км 10/10 300 м
[Sc]
-3.3 -4.3 93 -10 -10 1018.6 1017.8 -5.4 28
06 21.05 С 4 20 км 10/10 300 м
[Sc]
-2.4 -4.0 89 -8 -8 1018.4 1017.6
09 21.05 С 2 н/о н/о -1.9 -4.1 85 -6 -6 1018.1 1017.4
12 21.05 С 4 20 км 10/10 300 м
[Sc]
-2.1 -4.3 85 -8 -8 1017.8 1017.0
15 21.05 С 4 20 км 10/10 300 м
[Sc]
-3.4 -5.7 84 -10 -10 1017.1 1016.3 -1.8
18 21.05 С 2 20 км 10/10 300 м
[Sc]
-3.1 -4.5 90 -7 -7 1015.7 1015.0
21 21.05 З 2 н/о н/о -3.0 -3.8 94 -7 -7 1014.5 1013.7
00 22.05 СЗ 3 20 км 10/10 300 м
[Sc]
-2.4 -4.9 83 -7 -7 1013.4 1012.6
03 22.05 СЗ 5 20 км 10/10 300 м
[Sc]
-2.4 -3.7 91 -9 -9 1012.3 1011.5 -3.6 28
06 22.05 СЗ 5 20 км 10/10 300 м
[Sc]
-1.4 -5.1 76 -8 -8 1011.8 1011.0
09 22.05 СЗ 4 н/о н/о -1.6 -4.6 80 -7 -7 1011.6 1010.8
12 22.05 СЗ 3 20 км 9/8 300 м
[Cu Sc Ci fib]
-1.9 -3.6 88 -7 -6 1011.2 1010.4
15 22.05 СЗ 2 20 км {ливн. осадки} 9/8 300 м
[Cb cap Ci fib]
-2.0 -4.3 84 -6 -6 1010.5 1009.7 -1.1 0.0
18 22.05 СЗ 1 20 км {ливн. осадки} 6/3 300 м
[Sc diur, vesp Ci fib]
-3.4 -5.2 87 -6 -6 1009.5 1008.7
21 22.05 штиль 0 н/о н/о -6.5 -6.8 98 -8 -8 1008.5 1007.7
00 23.05 Ю 1 20 км 8/8 300 м
[Sc]
-6.4 -6.9 96 -9 -9 1007.6 1006.8
03 23.05 ЮВ 1 20 км 10/10 300 м
[Sc]
-3.2 -4.4 91 -6 -6 1006.7 1005.9 -7.0 28
06 23.05 Ю 3 20 км 9/9 300 м
[Cu Sc]
-2.1 -4.1 86 -7 -6 1006.3 1005.5
09 23.05 ЮЗ 1 н/о н/о -0.7 -5.5 70 -2 -2 1006.3 1005.5
12 23.05 ЮЗ 1 20 км 9/9 300 м
[Cu Sc]
-1.0 -5.7 70 -3 -2 1006.6 1005.8

 

Местоположение метеостанции Мыс Белый Нос (Ненецкий АО, Россия): широта 69.60 долгота 60.21 высота над уровнем моря 6 м.

В архиве по умолчанию представлена погода на Мысе Белый Нос за последнюю неделю. Архивные данные за месяц целиком и за предыдущие месяцы, начиная с января 2011 года, Вы можете получить, выбрав интересующий диапазон дат из раскрывающегося списка и нажав кнопку "Ввод!".


*Определитесь, кто Вы:
робот инопланетянин человек

Внимание! Время в таблицах - всемирное. Для получения местного времени необходимо прибавить поправку, которая равна 3 ч.

Смотрите также архив погоды в соседних городах и на ближайших метеорологических станциях:

Погода в Амдерме (Ненецкий АО, Россия) (60 км)
Погода в Имени Федорова (Ненецкий АО, Россия) (104 км)
Погода в Варандее (Ненецкий АО, Россия) (122 км)
Погода в Усть-Каре (Ненецкий АО, Россия) (189 км)
Погода на Мысе Константиновском (Ненецкий АО, Россия) (220 км)
Погода в Марресале (Ямало-Ненецкий АО, Россия) (255 км)
Погода в Хорей-Вере (Ненецкий АО, Россия) (257 км)
Погода в Ходоварихе (Ненецкий АО, Россия) (265 км)
Погода в Воркуте (Коми, Россия) (281 км)
Погода в Харуте (Ненецкий АО, Россия) (307 км)

Пояснения к столбцам:

Ветер - указаны скорость ветра в м/с - средняя за 10 мин, порывы в срок и между сроками (в фигурных скобках) и направление, откуда дует ветер: С - северный, СВ - северо-восточный, В - восточный, ЮВ - юго-восточный, Ю - южный, ЮЗ - юго-западный, З - западный, СЗ - северо-западный.
Видимость - горизонтальная дальность видимости в метрах или километрах. При видимости от 1 до 10 км при отсутствии осадков обычно наблюдается дымка, при ухудшении видимости до 1 км и менее - туман. В сухую погоду видимость может ухудшаться дымом, пылью или мглою.
Явления - указаны атмосферные явления, наблюдавшиеся в срок или в последний час перед сроком; фигурными скобками обозначены явления, наблюдавшиеся между сроками (за 1-3 часа до срока); квадратными скобками обозначены град или гололедные отложения с указанием их диаметра в мм.
Облачность - указаны через наклонную черту общая и нижняя облачность в баллах и высота нижней границы облаков в метрах; квадратными скобками обозначены формы облаков: Ci - перистые, Cs - перисто-слоистые, Cc - перисто-кучевые, Ac - высококучевые, As - высокослоистые, Sc - слоисто-кучевые, Ns - слоисто-дождевые, Cu - кучевые, Cb - кучево-дождевые. Подробнее классификацию облаков см. в Атласе облаков (PDF).
T - Температура воздуха - температура, измеренная на высоте 2 м над землей.
Td - Температура точки росы - температура, при понижении до которой содержащийся в воздухе водяной пар достигнет насыщения.
f - Относительная влажность воздуха - влажноcть воздуха, измеренная на высоте 2 м над землей.
Te - Эффективная температура - температура, которую ощущает одетый по сезону человек в тени. Характеристика душности погоды. При расчете учитывается влияние влажности воздуха и скорости ветра на теплоощущения человека.
Tes - Эффективная температура на солнце - температура, которую ощущает человек, с поправкой на солнечный нагрев. Характеристика знойности погоды. Зависит от высоты солнца над горизонтом, облачности и скорости ветра. Ночью, в пасмурную погоду, а также при ветре 12 м/с и более поправка равна нулю.
P - Атмосферное давление - приведенное к уровню моря атмосферное давление.
Po - Атмосферное давление - измеренное на уровне метеостанции атмосферное давление.
Tmin - Минимальная температура - минимум температуры воздуха на высоте 2 м над землей.
Tmax - Максимальная температура - максимум температуры воздуха на высоте 2 м над землей.
R - Количество осадков - Количество выпавших осадков за период времени, мм. При наведении курсора мыши на число - период времени, за который выпало указанное количество осадков.
R24 - Количество осадков - Количество выпавших осадков за 24 часа, мм.
S - Снежный покров - Высота снежного покрова, см. При наведении курсора мыши на число - состояние снежного покрова и степень покрытия местности в баллах.